| time (UTC) | temp C | wind direction | speed KPH | gust KPH | rain 1hr cm | rain 24hr cm | rain mn cm | humidity % | barometer mb |
| 20260506104535 | 11 | 333 | 0.0 | 4.8 | 0.00 | 0.00 | 0.00 | 91 | 1019.7 |
| 20260506103039 | 11 | 316 | 0.0 | 8.0 | 0.00 | 0.00 | 0.00 | 91 | 1019.8 |
| 20260506101537 | 11 | 340 | 1.6 | 6.4 | 0.00 | 0.00 | 0.00 | 91 | 1019.6 |
| 20260506100040 | 11 | 338 | 1.6 | 4.8 | 0.00 | 0.00 | 0.00 | 90 | 1019.7 |
| 20260506094547 | 11 | 311 | 0.0 | 4.8 | 0.00 | 3.73 | 0.00 | 89 | 1019.8 |
| 20260506093039 | 11 | 0 | 3.2 | 8.0 | 0.00 | 3.73 | 0.00 | 89 | 1019.7 |
| 20260506091543 | 11 | 328 | 1.6 | 8.0 | 0.00 | 3.73 | 0.00 | 88 | 1019.7 |
| 20260506090041 | 11 | 0 | 0.0 | 9.7 | 0.00 | 3.73 | 0.00 | 88 | 1019.7 |
| 20260506084542 | -17 | 0 | 0.0 | 3.2 | 0.00 | 3.81 | 0.00 | 1019.7 | |
| 20260506083037 | 12 | 0 | 0.0 | 1.6 | 0.00 | 3.81 | 0.00 | 100 | 1019.7 |
| 20260506081535 | 12 | 0 | 0.0 | 4.8 | 0.00 | 3.81 | 0.00 | 100 | 1019.8 |
| 20260506073040 | 12 | 0 | 0.0 | 1.6 | 0.00 | 3.91 | 0.00 | 100 | 1019.6 |
| 20260506071538 | 12 | 337 | 0.0 | 4.8 | 0.00 | 3.91 | 0.00 | 100 | 1019.5 |
| 20260506061539 | 12 | 0 | 0.0 | 3.2 | 0.00 | 3.96 | 3.91 | 100 | 1019.1 |
| 20260506044541 | 12 | 303 | 0.0 | 9.7 | 0.00 | 4.09 | 3.91 | 100 | 1018.6 |
| 20260506043036 | 12 | 0 | 0.0 | 6.4 | 0.00 | 4.09 | 3.91 | 100 | 1018.5 |
| 20260506041541 | 12 | 316 | 0.0 | 3.2 | 0.00 | 4.09 | 3.91 | 100 | 1018.4 |
| 20260506040042 | 12 | 310 | 1.6 | 8.0 | 0.00 | 4.09 | 3.91 | 100 | 1018.0 |
| 20260506034539 | 12 | 277 | 0.0 | 9.7 | 0.00 | 4.09 | 3.91 | 100 | 1017.9 |
| 20260506033037 | 12 | 285 | 0.0 | 6.4 | 0.00 | 4.09 | 3.91 | 100 | 1017.7 |
| 20260506031549 | 12 | 0 | 0.0 | 8.0 | 0.00 | 4.09 | 3.91 | 100 | 1017.5 |
| 20260506030041 | 12 | 293 | 1.6 | 8.0 | 0.00 | 4.09 | 3.91 | 100 | 1017.3 |
| 20260506024550 | 12 | 315 | 4.8 | 11.3 | 0.00 | 4.09 | 3.91 | 100 | 1017.2 |
| 20260506023038 | 12 | 293 | 1.6 | 8.0 | 0.00 | 4.09 | 3.91 | 100 | 1017.1 |
| 20260506021538 | 13 | 292 | 4.8 | 16.1 | 0.00 | 4.09 | 3.91 | 6 | 1016.9 |
| 20260506020036 | 13 | 297 | 3.2 | 12.9 | 0.00 | 4.09 | 3.91 | 100 | 1016.8 |
| 20260506014542 | 13 | 285 | 3.2 | 12.9 | 0.00 | 4.09 | 3.91 | 2 | 1016.8 |
| 20260506013040 | 13 | 284 | 1.6 | 14.5 | 0.00 | 4.09 | 3.91 | 13 | 1016.9 |
| 20260506011537 | 13 | 64 | 4.8 | 16.1 | 0.00 | 4.09 | 3.91 | 38 | 1016.9 |
| 20260506010036 | 14 | 287 | 1.6 | 14.5 | 0.00 | 4.09 | 3.91 | 48 | 1016.8 |
| 20260506004541 | 14 | 309 | 6.4 | 20.9 | 0.00 | 4.09 | 3.91 | 49 | 1016.7 |
| 20260506003042 | 15 | 330 | 6.4 | 16.1 | 0.00 | 4.09 | 3.91 | 56 | 1016.6 |
| 20260506001542 | 15 | 322 | 1.6 | 19.3 | 0.00 | 4.09 | 3.91 | 49 | 1016.4 |
| 20260506000040 | 15 | 339 | 6.4 | 19.3 | 0.00 | 4.09 | 3.91 | 53 | 1016.4 |
| 20260505234544 | 14 | 186 | 4.8 | 16.1 | 0.00 | 4.09 | 3.91 | 80 | 1016.4 |
| 20260505233042 | 14 | 168 | 12.9 | 25.7 | 0.00 | 4.09 | 3.91 | 78 | 1016.5 |
| 20260505231551 | 15 | 246 | 8.0 | 27.4 | 0.00 | 4.09 | 3.91 | 77 | 1016.5 |
| 20260505230053 | 15 | 199 | 6.4 | 22.5 | 0.00 | 4.09 | 3.91 | 78 | 1016.4 |
| 20260505224540 | 15 | 174 | 4.8 | 17.7 | 0.00 | 4.09 | 3.91 | 76 | 1016.4 |
| 20260505223036 | 15 | 0 | 3.2 | 20.9 | 0.00 | 4.09 | 3.91 | 80 | 1016.4 |
| 20260505221538 | 14 | 205 | 9.7 | 19.3 | 0.00 | 4.09 | 3.91 | 80 | 1016.6 |
| 20260505220040 | 14 | 200 | 11.3 | 22.5 | 0.00 | 4.09 | 3.91 | 79 | 1016.7 |
| 20260505214537 | 14 | 207 | 9.7 | 20.9 | 0.00 | 4.09 | 3.91 | 81 | 1016.9 |
| 20260505213047 | 15 | 208 | 8.0 | 19.3 | 0.00 | 4.09 | 3.91 | 77 | 1016.9 |
| 20260505211536 | 15 | 237 | 6.4 | 19.3 | 0.00 | 4.09 | 3.91 | 77 | 1017.0 |
| 20260505210037 | 15 | 187 | 3.2 | 16.1 | 0.00 | 4.09 | 3.91 | 75 | 1017.0 |
| 20260505204539 | 15 | 219 | 4.8 | 19.3 | 0.00 | 4.09 | 3.91 | 76 | 1016.9 |
| 20260505203039 | 15 | 238 | 4.8 | 19.3 | 0.00 | 4.09 | 3.91 | 74 | 1016.9 |
| 20260505201538 | 16 | 238 | 6.4 | 19.3 | 0.00 | 4.09 | 3.91 | 72 | 1016.9 |
| 20260505200108 | 16 | 298 | 4.8 | 20.9 | 0.00 | 4.09 | 3.91 | 74 | 1016.8 |
| 20260505194542 | 16 | 221 | 3.2 | 19.3 | 0.00 | 4.09 | 3.91 | 74 | 1017.0 |
| 20260505193039 | 15 | 290 | 6.4 | 19.3 | 0.00 | 4.09 | 3.91 | 77 | 1017.1 |
| 20260505191539 | 15 | 34 | 3.2 | 11.3 | 0.00 | 4.09 | 3.91 | 79 | 1017.2 |
| 20260505190036 | 14 | 184 | 3.2 | 17.7 | 0.00 | 4.09 | 3.91 | 81 | 1016.8 |
| 20260505184535 | 13 | 316 | 4.8 | 17.7 | 0.00 | 4.09 | 3.91 | 82 | 1016.9 |
| 20260505183038 | 14 | 331 | 4.8 | 16.1 | 0.00 | 4.09 | 3.91 | 80 | 1016.9 |
| 20260505181540 | 14 | 352 | 4.8 | 12.9 | 0.00 | 4.09 | 3.91 | 84 | 1016.9 |
| 20260505180047 | 13 | 359 | 1.6 | 9.7 | 0.00 | 4.09 | 3.91 | 88 | 1016.6 |
| 20260505174541 | 13 | 309 | 3.2 | 11.3 | 0.00 | 4.09 | 3.91 | 90 | 1016.5 |
| 20260505173035 | 13 | 273 | 1.6 | 9.7 | 0.00 | 4.09 | 3.91 | 91 | 1016.5 |
| 20260505171544 | 12 | 13 | 3.2 | 11.3 | 0.00 | 4.09 | 3.91 | 91 | 1016.4 |
| 20260505170040 | 12 | 291 | 3.2 | 11.3 | 0.00 | 4.09 | 3.91 | 92 | 1016.4 |
| 20260505164539 | 12 | 302 | 1.6 | 11.3 | 0.00 | 4.09 | 3.91 | 92 | 1016.4 |
| 20260505163034 | 12 | 240 | 1.6 | 16.1 | 0.00 | 4.09 | 3.91 | 93 | 1016.5 |
| 20260505161545 | 11 | 328 | 1.6 | 11.3 | 0.00 | 4.09 | 3.91 | 93 | 1016.3 |
| 20260505153036 | 11 | 331 | 0.0 | 9.7 | 0.00 | 4.09 | 3.91 | 93 | 1015.9 |
| 20260505151541 | 11 | 18 | 0.0 | 12.9 | 0.00 | 4.09 | 3.91 | 92 | 1015.9 |
| 20260505124541 | 11 | 221 | 8.0 | 14.5 | 0.00 | 4.09 | 3.91 | 91 | 1015.2 |
| 20260505123040 | 10 | 167 | 1.6 | 12.9 | 0.00 | 4.09 | 3.91 | 91 | 1015.2 |
| 20260505121539 | 10 | 207 | 4.8 | 17.7 | 0.00 | 4.09 | 3.91 | 91 | 1015.2 |
| 20260505120036 | 10 | 205 | 6.4 | 16.1 | 0.00 | 4.09 | 3.91 | 91 | 1015.1 |
| 20260505114541 | 10 | 245 | 6.4 | 14.5 | 0.00 | 4.09 | 3.91 | 91 | 1015.2 |
| 20260505113041 | 10 | 164 | 8.0 | 17.7 | 0.00 | 4.09 | 3.91 | 90 | 1015.3 |
| 20260505111537 | 10 | 161 | 1.6 | 16.1 | 0.00 | 4.09 | 3.91 | 91 | 1015.3 |